| time (UTC) | temp F | wind direction | speed MPH | gust MPH | rain 1hr in | rain 24hr in | rain mn in | humidity % | barometer mb |
| 20260507095601 | 58 | 27 | 4.0 | 10.0 | 0.00 | 0.00 | 0.00 | 91 | 1016.2 |
| 20260507095100 | 58 | 37 | 4.0 | 10.0 | 0.00 | 0.00 | 0.00 | 91 | 1016.4 |
| 20260507094601 | 58 | 31 | 4.0 | 10.0 | 0.00 | 0.00 | 0.00 | 91 | 1016.3 |
| 20260507094101 | 58 | 32 | 4.0 | 6.0 | 0.00 | 0.00 | 0.00 | 91 | 1016.0 |
| 20260507093602 | 58 | 39 | 4.0 | 6.0 | 0.00 | 0.00 | 0.00 | 91 | 1015.9 |
| 20260507093102 | 58 | 42 | 4.0 | 8.0 | 0.00 | 0.00 | 0.00 | 90 | 1015.9 |
| 20260507092601 | 58 | 33 | 4.0 | 8.0 | 0.00 | 0.00 | 0.00 | 90 | 1016.0 |
| 20260507092341 | 58 | 50 | 3.0 | 7.0 | 0.00 | 0.00 | 0.00 | 90 | 1016.1 |
| 20260507091602 | 58 | 283 | 3.0 | 7.0 | 0.00 | 0.00 | 0.00 | 90 | 1016.0 |
| 20260507091102 | 58 | 227 | 3.0 | 6.0 | 0.00 | 0.00 | 0.00 | 90 | 1015.6 |
| 20260507090602 | 58 | 25 | 3.0 | 9.0 | 0.00 | 0.00 | 0.00 | 90 | 1015.5 |
| 20260507085601 | 58 | 46 | 5.0 | 12.0 | 0.00 | 0.00 | 0.00 | 90 | 1015.3 |
| 20260507085348 | 59 | 22 | 4.0 | 12.0 | 0.00 | 0.00 | 0.00 | 90 | 1015.0 |
| 20260507084601 | 59 | 30 | 4.0 | 13.0 | 0.00 | 0.00 | 0.00 | 90 | 1015.2 |
| 20260507084101 | 59 | 33 | 5.0 | 13.0 | 0.00 | 0.00 | 0.00 | 90 | 1015.4 |
| 20260507083846 | 59 | 38 | 4.0 | 11.0 | 0.00 | 0.00 | 0.00 | 89 | 1015.0 |
| 20260507083102 | 59 | 32 | 2.0 | 11.0 | 0.00 | 0.00 | 0.00 | 89 | 1015.0 |
| 20260507082844 | 59 | 244 | 2.0 | 11.0 | 0.00 | 0.00 | 0.00 | 90 | 1014.7 |
| 20260507082102 | 59 | 306 | 2.0 | 6.0 | 0.00 | 0.00 | 0.00 | 90 | 1015.3 |
| 20260507081605 | 59 | 286 | 3.0 | 7.0 | 0.00 | 0.00 | 0.00 | 90 | 1015.0 |
| 20260507081102 | 59 | 23 | 3.0 | 9.0 | 0.00 | 0.00 | 0.00 | 90 | 1015.2 |
| 20260507080601 | 59 | 298 | 3.0 | 9.0 | 0.00 | 0.00 | 0.00 | 90 | 1015.0 |
| 20260507080348 | 59 | 315 | 4.0 | 9.0 | 0.00 | 0.00 | 0.00 | 89 | 1014.4 |
| 20260507075603 | 59 | 305 | 4.0 | 9.0 | 0.00 | 0.00 | 0.00 | 89 | 1014.5 |
| 20260507075102 | 59 | 335 | 5.0 | 9.0 | 0.00 | 0.00 | 0.00 | 89 | 1014.6 |
| 20260507074602 | 59 | 327 | 4.0 | 8.0 | 0.00 | 0.00 | 0.00 | 89 | 1014.8 |
| 20260507074101 | 59 | 358 | 4.0 | 8.0 | 0.00 | 0.00 | 0.00 | 89 | 1014.7 |
| 20260507073842 | 59 | 348 | 4.0 | 8.0 | 0.00 | 0.00 | 0.00 | 89 | 1014.7 |
| 20260507073102 | 59 | 338 | 4.0 | 8.0 | 0.00 | 0.00 | 0.00 | 88 | 1014.3 |
| 20260507072602 | 59 | 22 | 4.0 | 8.0 | 0.00 | 0.00 | 0.00 | 88 | 1014.6 |
| 20260507072102 | 59 | 26 | 5.0 | 9.0 | 0.00 | 0.00 | 0.00 | 88 | 1014.7 |
| 20260507071602 | 59 | 325 | 5.0 | 9.0 | 0.00 | 0.00 | 0.00 | 88 | 1014.9 |
| 20260507071102 | 60 | 42 | 4.0 | 7.0 | 0.00 | 0.00 | 0.00 | 87 | 1014.8 |
| 20260507070840 | 60 | 35 | 5.0 | 9.0 | 0.00 | 0.00 | 0.00 | 87 | 1014.7 |
| 20260507065603 | 60 | 14 | 6.0 | 10.0 | 0.00 | 0.00 | 0.00 | 87 | 1014.6 |
| 20260507065340 | 60 | 33 | 5.0 | 9.0 | 0.00 | 0.00 | 0.00 | 87 | 1014.4 |
| 20260507064843 | 60 | 357 | 5.0 | 9.0 | 0.00 | 0.00 | 0.00 | 86 | 1014.1 |
| 20260507064101 | 60 | 295 | 5.0 | 8.0 | 0.00 | 0.00 | 0.00 | 86 | 1014.4 |
| 20260507063601 | 60 | 34 | 4.0 | 8.0 | 0.00 | 0.00 | 0.00 | 85 | 1014.6 |
| 20260507063103 | 60 | 25 | 4.0 | 7.0 | 0.00 | 0.00 | 0.00 | 85 | 1014.7 |
| 20260507062601 | 60 | 46 | 5.0 | 8.0 | 0.00 | 0.00 | 0.00 | 85 | 1014.6 |
| 20260507062101 | 60 | 39 | 5.0 | 8.0 | 0.00 | 0.00 | 0.00 | 85 | 1014.4 |
| 20260507061600 | 60 | 31 | 5.0 | 8.0 | 0.00 | 0.00 | 0.00 | 85 | 1014.4 |
| 20260507061100 | 60 | 36 | 5.0 | 8.0 | 0.00 | 0.00 | 0.00 | 85 | 1014.7 |
| 20260507060602 | 60 | 32 | 5.0 | 8.0 | 0.00 | 0.00 | 0.00 | 85 | 1015.2 |
| 20260507055601 | 60 | 40 | 5.0 | 7.0 | 0.00 | 0.00 | 0.00 | 85 | 1014.7 |
| 20260507055101 | 60 | 31 | 5.0 | 7.0 | 0.00 | 0.00 | 0.00 | 85 | 1014.5 |
| 20260507054601 | 60 | 24 | 5.0 | 7.0 | 0.00 | 0.00 | 0.00 | 85 | 1014.5 |
| 20260507054100 | 61 | 14 | 4.0 | 7.0 | 0.00 | 0.00 | 0.00 | 85 | 1014.4 |
| 20260507053846 | 61 | 31 | 4.0 | 10.0 | 0.00 | 0.00 | 0.00 | 85 | 1014.4 |
| 20260507053102 | 61 | 11 | 4.0 | 10.0 | 0.00 | 0.00 | 0.00 | 84 | 1014.4 |
| 20260507052601 | 61 | 259 | 5.0 | 11.0 | 0.00 | 0.00 | 0.00 | 84 | 1014.5 |
| 20260507052101 | 61 | 20 | 5.0 | 11.0 | 0.00 | 0.00 | 0.00 | 84 | 1014.3 |
| 20260507051559 | 61 | 287 | 4.0 | 10.0 | 0.00 | 0.00 | 0.00 | 84 | 1014.3 |
| 20260507051058 | 61 | 59 | 4.0 | 10.0 | 0.00 | 0.00 | 0.00 | 84 | 1014.7 |
| 20260507050838 | 61 | 322 | 4.0 | 10.0 | 0.00 | 0.00 | 0.00 | 84 | 1014.8 |
| 20260507050052 | 61 | 26 | 5.0 | 11.0 | 0.00 | 0.00 | 0.00 | 84 | 1014.5 |
| 20260507045552 | 61 | 40 | 4.0 | 11.0 | 0.00 | 0.00 | 0.00 | 84 | 1014.4 |
| 20260507045342 | 61 | 54 | 4.0 | 8.0 | 0.00 | 0.00 | 0.00 | 84 | 1014.7 |
| 20260507044553 | 61 | 58 | 4.0 | 9.0 | 0.00 | 0.00 | 0.00 | 84 | 1014.8 |
| 20260507044053 | 61 | 291 | 5.0 | 11.0 | 0.00 | 0.00 | 0.00 | 84 | 1014.5 |
| 20260507043555 | 61 | 21 | 5.0 | 11.0 | 0.00 | 0.00 | 0.00 | 84 | 1014.6 |
| 20260507043052 | 61 | 29 | 6.0 | 11.0 | 0.00 | 0.00 | 0.00 | 84 | 1014.9 |
| 20260507042552 | 61 | 333 | 4.0 | 9.0 | 0.00 | 0.00 | 0.00 | 84 | 1014.7 |
| 20260507042053 | 62 | 30 | 4.0 | 10.0 | 0.00 | 0.00 | 0.00 | 84 | 1014.7 |
| 20260507041553 | 62 | 12 | 4.0 | 10.0 | 0.00 | 0.00 | 0.00 | 84 | 1014.7 |
| 20260507041053 | 62 | 24 | 4.0 | 10.0 | 0.00 | 0.00 | 0.00 | 84 | 1014.6 |
| 20260507040553 | 62 | 25 | 5.0 | 9.0 | 0.00 | 0.00 | 0.00 | 84 | 1014.7 |
| 20260507040054 | 62 | 225 | 6.0 | 9.0 | 0.00 | 0.00 | 0.00 | 84 | 1015.0 |
| 20260507035553 | 62 | 40 | 5.0 | 10.0 | 0.00 | 0.00 | 0.00 | 84 | 1014.8 |
| 20260507035053 | 62 | 26 | 4.0 | 13.0 | 0.00 | 0.00 | 0.00 | 84 | 1014.6 |
| 20260507034553 | 62 | 197 | 5.0 | 13.0 | 0.00 | 0.00 | 0.00 | 84 | 1014.6 |
| 20260507034053 | 62 | 37 | 4.0 | 12.0 | 0.00 | 0.00 | 0.00 | 84 | 1014.4 |
| 20260507033548 | 62 | 26 | 4.0 | 9.0 | 0.00 | 0.00 | 0.00 | 84 | 1014.5 |
| 20260507033332 | 62 | 35 | 3.0 | 9.0 | 0.00 | 0.00 | 0.00 | 84 | 1014.6 |
| 20260507032542 | 62 | 50 | 3.0 | 7.0 | 0.00 | 0.00 | 0.00 | 85 | 1014.5 |
| 20260507032042 | 62 | 45 | 4.0 | 10.0 | 0.00 | 0.00 | 0.00 | 85 | 1014.5 |
| 20260507031535 | 62 | 33 | 4.0 | 10.0 | 0.00 | 0.00 | 0.00 | 85 | 1014.4 |
| 20260507031103 | 62 | 308 | 4.0 | 8.0 | 0.00 | 0.00 | 0.00 | 85 | 1014.1 |
| 20260507031056 | 62 | 92 | 4.0 | 10.0 | 0.00 | 0.00 | 0.00 | 85 | 1014.4 |
| 20260507030031 | 62 | 48 | 3.0 | 7.0 | 0.00 | 0.00 | 0.00 | 85 | 1014.1 |
| 20260507025530 | 62 | 44 | 3.0 | 7.0 | 0.00 | 0.00 | 0.00 | 85 | 1014.1 |
| 20260507025030 | 62 | 34 | 4.0 | 7.0 | 0.00 | 0.00 | 0.00 | 85 | 1014.4 |
| 20260507024531 | 62 | 314 | 4.0 | 7.0 | 0.00 | 0.00 | 0.00 | 85 | 1014.4 |
| 20260507024030 | 62 | 10 | 4.0 | 9.0 | 0.00 | 0.00 | 0.00 | 85 | 1014.1 |
| 20260507023530 | 62 | 34 | 4.0 | 9.0 | 0.00 | 0.00 | 0.00 | 84 | 1014.1 |
| 20260507023030 | 62 | 31 | 4.0 | 8.0 | 0.00 | 0.00 | 0.00 | 84 | 1013.9 |
| 20260507022814 | 62 | 22 | 5.0 | 9.0 | 0.00 | 0.00 | 0.00 | 84 | 1013.8 |
| 20260507022034 | 62 | 46 | 4.0 | 9.0 | 0.00 | 0.00 | 0.00 | 84 | 1013.6 |
| 20260507021809 | 62 | 49 | 4.0 | 9.0 | 0.00 | 0.00 | 0.00 | 84 | 1013.6 |
| 20260507021030 | 62 | 66 | 4.0 | 9.0 | 0.00 | 0.00 | 0.00 | 84 | 1013.8 |
| 20260507020530 | 62 | 2 | 4.0 | 7.0 | 0.00 | 0.00 | 0.00 | 84 | 1013.6 |
| 20260507020025 | 62 | 37 | 4.0 | 9.0 | 0.00 | 0.00 | 0.00 | 84 | 1013.7 |
| 20260507015555 | 62 | 63 | 3.0 | 7.0 | 0.00 | 0.00 | 0.00 | 84 | 1013.3 |
| 20260507015545 | 62 | 9 | 3.0 | 9.0 | 0.00 | 0.00 | 0.00 | 84 | 1013.5 |
| 20260507014528 | 62 | 48 | 3.0 | 8.0 | 0.00 | 0.00 | 0.00 | 84 | 1013.1 |
| 20260507014522 | 62 | 218 | 3.0 | 12.0 | 0.00 | 0.00 | 0.00 | 84 | 1013.1 |
| 20260507013525 | 62 | 219 | 3.0 | 12.0 | 0.00 | 0.00 | 0.00 | 84 | 1012.9 |
| 20260507013025 | 62 | 222 | 3.0 | 9.0 | 0.00 | 0.00 | 0.00 | 83 | 1012.8 |
| 20260507012525 | 62 | 24 | 3.0 | 6.0 | 0.00 | 0.00 | 0.00 | 83 | 1012.8 |
| 20260507012306 | 62 | 44 | 3.0 | 7.0 | 0.00 | 0.00 | 0.00 | 83 | 1012.7 |
| 20260507011525 | 62 | 2 | 3.0 | 7.0 | 0.00 | 0.00 | 0.00 | 83 | 1012.7 |
| 20260507011342 | 62 | 180 | 3.0 | 7.0 | 0.00 | 0.00 | 0.00 | 82 | 1012.7 |
| 20260507011049 | 62 | 46 | 3.0 | 7.0 | 0.00 | 0.00 | 0.00 | 82 | 1012.8 |
| 20260507010025 | 62 | 238 | 3.0 | 8.0 | 0.00 | 0.00 | 0.00 | 83 | 1012.4 |
| 20260507005525 | 62 | 247 | 3.0 | 8.0 | 0.00 | 0.00 | 0.00 | 82 | 1012.4 |
| 20260507005025 | 62 | 36 | 3.0 | 9.0 | 0.00 | 0.00 | 0.00 | 82 | 1012.3 |
| 20260507004525 | 62 | 205 | 3.0 | 10.0 | 0.00 | 0.00 | 0.00 | 82 | 1012.3 |
| 20260507004025 | 62 | 226 | 4.0 | 10.0 | 0.00 | 0.00 | 0.00 | 82 | 1012.3 |
| 20260507003523 | 62 | 34 | 4.0 | 14.0 | 0.00 | 0.00 | 0.00 | 82 | 1012.2 |
| 20260507003021 | 62 | 33 | 4.0 | 14.0 | 0.00 | 0.00 | 0.00 | 82 | 1012.3 |
| 20260507002518 | 62 | 37 | 4.0 | 14.0 | 0.00 | 0.00 | 0.00 | 82 | 1012.2 |
| 20260507002053 | 62 | 41 | 4.0 | 11.0 | 0.00 | 0.00 | 0.00 | 83 | 1012.1 |
| 20260507002043 | 62 | 50 | 3.0 | 7.0 | 0.00 | 0.00 | 0.00 | 83 | 1012.4 |
| 20260507001019 | 62 | 48 | 4.0 | 11.0 | 0.00 | 0.00 | 0.00 | 82 | 1012.2 |
| 20260507000520 | 62 | 43 | 4.0 | 11.0 | 0.00 | 0.00 | 0.00 | 82 | 1012.0 |
| 20260507000019 | 62 | 39 | 3.0 | 13.0 | 0.00 | 0.00 | 0.00 | 82 | 1011.9 |
| 20260506235520 | 62 | 346 | 3.0 | 13.0 | 0.00 | 0.00 | 0.00 | 82 | 1012.3 |
| 20260506235020 | 62 | 12 | 3.0 | 8.0 | 0.00 | 0.00 | 0.00 | 82 | 1012.1 |
| 20260506234520 | 62 | 243 | 4.0 | 9.0 | 0.00 | 0.00 | 0.00 | 83 | 1011.9 |
| 20260506234305 | 62 | 37 | 3.0 | 9.0 | 0.00 | 0.00 | 0.00 | 82 | 1011.9 |
| 20260506233519 | 62 | 219 | 3.0 | 9.0 | 0.00 | 0.00 | 0.00 | 82 | 1012.1 |
| 20260506233020 | 62 | 29 | 3.0 | 7.0 | 0.00 | 0.00 | 0.00 | 83 | 1012.0 |
| 20260506232520 | 62 | 202 | 4.0 | 10.0 | 0.00 | 0.00 | 0.00 | 83 | 1012.1 |
| 20260506232020 | 62 | 216 | 4.0 | 10.0 | 0.00 | 0.00 | 0.00 | 83 | 1012.1 |
| 20260506231514 | 62 | 32 | 3.0 | 8.0 | 0.00 | 0.00 | 0.00 | 83 | 1011.9 |
| 20260506231257 | 62 | 65 | 3.0 | 11.0 | 0.00 | 0.00 | 0.00 | 83 | 1011.9 |
| 20260506230512 | 62 | 75 | 3.0 | 11.0 | 0.00 | 0.00 | 0.00 | 83 | 1011.8 |
| 20260506230011 | 62 | 29 | 3.0 | 11.0 | 0.00 | 0.00 | 0.00 | 83 | 1011.9 |
| 20260506225508 | 62 | 51 | 3.0 | 10.0 | 0.00 | 0.00 | 0.00 | 83 | 1011.9 |
| 20260506225009 | 62 | 49 | 3.0 | 12.0 | 0.00 | 0.00 | 0.00 | 83 | 1011.9 |
| 20260506224507 | 62 | 47 | 3.0 | 12.0 | 0.00 | 0.00 | 0.00 | 83 | 1012.0 |
| 20260506224256 | 62 | 46 | 3.0 | 10.0 | 0.00 | 0.00 | 0.00 | 83 | 1012.0 |
| 20260506223509 | 62 | 55 | 3.0 | 12.0 | 0.00 | 0.00 | 0.00 | 83 | 1011.7 |
| 20260506223009 | 62 | 48 | 3.0 | 12.0 | 0.00 | 0.00 | 0.00 | 83 | 1011.8 |
| 20260506222509 | 62 | 48 | 3.0 | 8.0 | 0.00 | 0.00 | 0.00 | 83 | 1011.8 |
| 20260506222005 | 62 | 290 | 3.0 | 8.0 | 0.00 | 0.00 | 0.00 | 83 | 1011.8 |
| 20260506221504 | 62 | 15 | 4.0 | 15.0 | 0.00 | 0.00 | 0.00 | 83 | 1011.8 |
| 20260506221005 | 62 | 56 | 5.0 | 15.0 | 0.00 | 0.00 | 0.00 | 83 | 1012.0 |
| 20260506220505 | 62 | 38 | 5.0 | 12.0 | 0.00 | 0.00 | 0.00 | 82 | 1011.9 |
| 20260506220249 | 62 | 60 | 4.0 | 12.0 | 0.00 | 0.00 | 0.00 | 82 | 1011.7 |
| 20260506215505 | 62 | 34 | 3.0 | 11.0 | 0.00 | 0.00 | 0.00 | 81 | 1011.7 |
| 20260506215252 | 62 | 212 | 4.0 | 12.0 | 0.00 | 0.00 | 0.00 | 81 | 1011.7 |
| 20260506214753 | 62 | 273 | 4.0 | 18.0 | 0.00 | 0.00 | 0.00 | 81 | 1011.6 |
| 20260506214002 | 63 | 36 | 4.0 | 18.0 | 0.00 | 0.00 | 0.00 | 81 | 1011.7 |
| 20260506213503 | 63 | 217 | 4.0 | 14.0 | 0.00 | 0.00 | 0.00 | 80 | 1011.8 |
| 20260506213250 | 63 | 43 | 4.0 | 14.0 | 0.00 | 0.00 | 0.00 | 79 | 1011.9 |
| 20260506212752 | 63 | 35 | 4.0 | 12.0 | 0.00 | 0.00 | 0.00 | 80 | 1011.9 |
| 20260506212001 | 63 | 67 | 4.0 | 12.0 | 0.00 | 0.00 | 0.00 | 81 | 1011.9 |
| 20260506211751 | 63 | 116 | 5.0 | 13.0 | 0.00 | 0.00 | 0.00 | 81 | 1011.9 |
| 20260506211002 | 63 | 232 | 4.0 | 13.0 | 0.00 | 0.00 | 0.00 | 81 | 1012.0 |
| 20260506210500 | 63 | 57 | 3.0 | 14.0 | 0.00 | 0.00 | 0.00 | 80 | 1012.1 |
| 20260506210000 | 63 | 27 | 3.0 | 14.0 | 0.00 | 0.00 | 0.00 | 80 | 1012.0 |
| 20260506205502 | 63 | 47 | 4.0 | 18.0 | 0.00 | 0.00 | 0.00 | 80 | 1012.0 |
| 20260506205249 | 63 | 55 | 4.0 | 18.0 | 0.00 | 0.00 | 0.00 | 80 | 1012.2 |
| 20260506204502 | 64 | 224 | 4.0 | 12.0 | 0.00 | 0.00 | 0.00 | 80 | 1012.2 |
| 20260506204002 | 64 | 224 | 3.0 | 12.0 | 0.00 | 0.00 | 0.00 | 79 | 1012.2 |
| 20260506203501 | 64 | 41 | 3.0 | 11.0 | 0.00 | 0.00 | 0.00 | 79 | 1012.1 |
| 20260506203000 | 64 | 50 | 3.0 | 19.0 | 0.00 | 0.00 | 0.00 | 79 | 1012.1 |
| 20260506202501 | 65 | 53 | 4.0 | 19.0 | 0.00 | 0.00 | 0.00 | 79 | 1012.1 |
| 20260506202247 | 65 | 10 | 4.0 | 12.0 | 0.00 | 0.00 | 0.00 | 79 | 1012.0 |
| 20260506201502 | 66 | 259 | 3.0 | 12.0 | 0.00 | 0.00 | 0.00 | 78 | 1011.9 |
| 20260506201002 | 66 | 210 | 3.0 | 8.0 | 0.00 | 0.00 | 0.00 | 77 | 1011.8 |
| 20260506200748 | 67 | 123 | 3.0 | 8.0 | 0.00 | 0.00 | 0.00 | 78 | 1011.7 |
| 20260506200002 | 67 | 49 | 3.0 | 7.0 | 0.00 | 0.00 | 0.00 | 78 | 1011.7 |
| 20260506195500 | 67 | 207 | 3.0 | 9.0 | 0.00 | 0.00 | 0.00 | 79 | 1011.8 |
| 20260506195002 | 67 | 31 | 3.0 | 10.0 | 0.00 | 0.00 | 0.00 | 79 | 1011.7 |
| 20260506194747 | 67 | 285 | 3.0 | 10.0 | 0.00 | 0.00 | 0.00 | 79 | 1011.7 |
| 20260506194001 | 68 | 38 | 3.0 | 10.0 | 0.00 | 0.00 | 0.00 | 79 | 1011.7 |
| 20260506193501 | 68 | 197 | 3.0 | 11.0 | 0.00 | 0.00 | 0.00 | 79 | 1011.7 |
| 20260506193245 | 68 | 333 | 3.0 | 11.0 | 0.00 | 0.00 | 0.00 | 79 | 1011.7 |
| 20260506192501 | 69 | 42 | 3.0 | 8.0 | 0.00 | 0.00 | 0.00 | 79 | 1011.7 |
| 20260506192003 | 69 | 54 | 2.0 | 8.0 | 0.00 | 0.00 | 0.00 | 78 | 1011.7 |
| 20260506191502 | 70 | 39 | 2.0 | 8.0 | 0.00 | 0.00 | 0.00 | 78 | 1011.7 |
| 20260506191246 | 70 | 187 | 2.0 | 6.0 | 0.00 | 0.00 | 0.00 | 77 | 1011.8 |
| 20260506190502 | 71 | 52 | 2.0 | 6.0 | 0.00 | 0.00 | 0.00 | 76 | 1011.8 |
| 20260506185959 | 71 | 228 | 2.0 | 8.0 | 0.00 | 0.00 | 0.00 | 76 | 1011.8 |
| 20260506185458 | 71 | 67 | 3.0 | 8.0 | 0.00 | 0.00 | 0.00 | 75 | 1011.6 |
| 20260506184958 | 71 | 29 | 3.0 | 8.0 | 0.00 | 0.00 | 0.00 | 76 | 1011.5 |
| 20260506184746 | 72 | 33 | 3.0 | 8.0 | 0.00 | 0.00 | 0.00 | 76 | 1011.5 |
| 20260506183959 | 72 | 41 | 2.0 | 8.0 | 0.00 | 0.00 | 0.00 | 75 | 1011.6 |
| 20260506183745 | 73 | 32 | 2.0 | 8.0 | 0.00 | 0.00 | 0.00 | 74 | 1011.6 |
| 20260506183240 | 72 | 175 | 2.0 | 8.0 | 0.00 | 0.00 | 0.00 | 76 | 1011.5 |
| 20260506182500 | 72 | 170 | 3.0 | 8.0 | 0.00 | 0.00 | 0.00 | 76 | 1011.4 |
| 20260506182241 | 71 | 75 | 2.0 | 7.0 | 0.00 | 0.00 | 0.00 | 77 | 1011.5 |
| 20260506181459 | 71 | 18 | 2.0 | 6.0 | 0.00 | 0.00 | 0.00 | 78 | 1011.5 |
| 20260506181244 | 70 | 184 | 3.0 | 6.0 | 0.00 | 0.00 | 0.00 | 79 | 1011.6 |
| 20260506180457 | 69 | 47 | 3.0 | 5.0 | 0.00 | 0.00 | 0.00 | 82 | 1011.3 |
| 20260506175957 | 69 | 47 | 3.0 | 6.0 | 0.00 | 0.00 | 0.00 | 80 | 1011.2 |
| 20260506175457 | 68 | 46 | 4.0 | 6.0 | 0.00 | 0.00 | 0.00 | 81 | 1011.2 |
| 20260506174954 | 68 | 35 | 3.0 | 6.0 | 0.00 | 0.00 | 0.00 | 81 | 1011.2 |
| 20260506174455 | 68 | 14 | 2.0 | 7.0 | 0.00 | 0.00 | 0.00 | 83 | 1011.1 |
| 20260506174030 | 67 | 79 | 3.0 | 7.0 | 0.00 | 0.00 | 0.00 | 83 | 1011.2 |
| 20260506174019 | 67 | 19 | 3.0 | 7.0 | 0.00 | 0.00 | 0.00 | 82 | 1011.0 |
| 20260506172955 | 67 | 353 | 4.0 | 9.0 | 0.00 | 0.00 | 0.00 | 82 | 1011.4 |
| 20260506172450 | 67 | 49 | 3.0 | 9.0 | 0.00 | 0.00 | 0.00 | 83 | 1011.4 |
| 20260506171951 | 66 | 27 | 3.0 | 7.0 | 0.00 | 0.00 | 0.00 | 84 | 1011.3 |
| 20260506171451 | 65 | 49 | 4.0 | 12.0 | 0.00 | 0.00 | 0.00 | 84 | 1011.5 |
| 20260506170951 | 64 | 345 | 4.0 | 12.0 | 0.00 | 0.00 | 0.00 | 86 | 1011.4 |
| 20260506170450 | 64 | 11 | 4.0 | 10.0 | 0.00 | 0.00 | 0.00 | 86 | 1011.4 |
| 20260506165952 | 64 | 84 | 4.0 | 9.0 | 0.00 | 0.00 | 0.00 | 86 | 1011.6 |
| 20260506165453 | 63 | 80 | 5.0 | 13.0 | 0.00 | 0.00 | 0.00 | 89 | 1011.4 |
| 20260506164945 | 62 | 30 | 6.0 | 26.0 | 0.00 | 0.00 | 0.00 | 90 | 1011.7 |
| 20260506164445 | 62 | 21 | 6.0 | 26.0 | 0.00 | 0.00 | 0.00 | 91 | 1012.0 |
| 20260506163946 | 62 | 43 | 6.0 | 11.0 | 0.00 | 0.00 | 0.00 | 92 | 1012.1 |
| 20260506163443 | 62 | 28 | 6.0 | 11.0 | 0.00 | 0.00 | 0.00 | 92 | 1012.3 |
| 20260506162940 | 61 | 14 | 6.0 | 12.0 | 0.00 | 0.00 | 0.00 | 94 | 1012.1 |
| 20260506162439 | 61 | 45 | 5.0 | 12.0 | 0.00 | 0.00 | 0.00 | 95 | 1011.9 |
| 20260506161937 | 60 | 34 | 5.0 | 10.0 | 0.00 | 0.00 | 0.00 | 94 | 1012.1 |
| 20260506161438 | 60 | 37 | 5.0 | 10.0 | 0.00 | 0.00 | 0.00 | 94 | 1012.7 |
| 20260506161220 | 61 | 60 | 4.0 | 10.0 | 0.00 | 0.00 | 0.00 | 94 | 1012.9 |
| 20260506160717 | 61 | 102 | 5.0 | 13.0 | 0.00 | 0.00 | 0.00 | 94 | 1013.2 |
| 20260506155937 | 61 | 21 | 5.0 | 13.0 | 0.00 | 0.00 | 0.00 | 94 | 1013.0 |
| 20260506155436 | 62 | 41 | 6.0 | 10.0 | 0.00 | 0.00 | 0.00 | 94 | 1012.9 |
| 20260506154937 | 62 | 41 | 5.0 | 11.0 | 0.00 | 0.00 | 0.00 | 94 | 1012.9 |
| 20260506154437 | 62 | 43 | 5.0 | 11.0 | 0.00 | 0.00 | 0.00 | 93 | 1012.9 |
| 20260506154220 | 63 | 45 | 5.0 | 14.0 | 0.00 | 0.00 | 0.00 | 92 | 1012.8 |
| 20260506153438 | 64 | 41 | 5.0 | 14.0 | 0.00 | 0.00 | 0.00 | 92 | 1012.7 |
| 20260506152938 | 65 | 47 | 5.0 | 11.0 | 0.00 | 0.00 | 0.00 | 91 | 1012.5 |
| 20260506152437 | 65 | 236 | 5.0 | 11.0 | 0.00 | 0.00 | 0.00 | 91 | 1012.3 |
| 20260506152222 | 65 | 288 | 6.0 | 10.0 | 0.00 | 0.00 | 0.00 | 91 | 1011.8 |
| 20260506151438 | 65 | 37 | 6.0 | 12.0 | 0.00 | 0.00 | 0.00 | 91 | 1011.6 |
| 20260506150934 | 65 | 41 | 6.0 | 12.0 | 0.00 | 0.00 | 0.00 | 91 | 1011.7 |
| 20260506150432 | 66 | 53 | 5.0 | 10.0 | 0.00 | 0.00 | 0.00 | 90 | 1011.6 |
| 20260506145932 | 67 | 51 | 4.0 | 10.0 | 0.00 | 0.00 | 0.00 | 90 | 1011.4 |
| 20260506145432 | 68 | 48 | 4.0 | 9.0 | 0.00 | 0.00 | 0.00 | 89 | 1011.1 |
| 20260506144932 | 70 | 22 | 4.0 | 9.0 | 0.00 | 0.00 | 0.00 | 88 | 1010.8 |
| 20260506144711 | 73 | 39 | 4.0 | 7.0 | 0.00 | 0.00 | 0.00 | 86 | 1010.5 |
| 20260506143930 | 77 | 6 | 2.0 | 7.0 | 0.00 | 0.00 | 0.00 | 80 | 1010.5 |
| 20260506143429 | 78 | 0 | 1.0 | 3.0 | 0.00 | 0.00 | 0.00 | 86 | 1010.1 |
| 20260506143152 | 78 | 63 | 1.0 | 3.0 | 0.00 | 0.00 | 0.00 | 87 | 1009.8 |
| 20260506142432 | 78 | 117 | 1.0 | 3.0 | 0.00 | 0.00 | 0.00 | 87 | 1009.7 |
| 20260506141931 | 78 | 152 | 2.0 | 4.0 | 0.00 | 0.00 | 0.00 | 88 | 1009.7 |
| 20260506141430 | 78 | 19 | 2.0 | 4.0 | 0.00 | 0.00 | 0.00 | 88 | 1009.5 |
| 20260506140930 | 77 | 147 | 1.0 | 4.0 | 0.00 | 0.00 | 0.00 | 90 | 1009.5 |
| 20260506140430 | 77 | 16 | 2.0 | 4.0 | 0.00 | 0.00 | 0.00 | 89 | 1009.7 |
| 20260506135930 | 76 | 195 | 2.0 | 6.0 | 0.00 | 0.00 | 0.00 | 90 | 1009.9 |
| 20260506135430 | 76 | 320 | 2.0 | 6.0 | 0.00 | 0.00 | 0.00 | 90 | 1009.6 |
| 20260506134930 | 76 | 126 | 2.0 | 5.0 | 0.00 | 0.00 | 0.00 | 90 | 1009.4 |
| 20260506134430 | 76 | 106 | 2.0 | 4.0 | 0.00 | 0.00 | 0.00 | 91 | 1009.3 |
| 20260506133930 | 77 | 137 | 2.0 | 4.0 | 0.00 | 0.00 | 0.00 | 90 | 1009.4 |
| 20260506133430 | 77 | 173 | 1.0 | 3.0 | 0.00 | 0.00 | 0.00 | 90 | 1009.5 |
| 20260506132931 | 76 | 89 | 1.0 | 3.0 | 0.00 | 0.00 | 0.00 | 90 | 1009.3 |
| 20260506132431 | 76 | 101 | 2.0 | 4.0 | 0.00 | 0.00 | 0.00 | 91 | 1009.2 |
| 20260506131930 | 75 | 297 | 1.0 | 4.0 | 0.00 | 0.00 | 0.00 | 93 | 1009.1 |
| 20260506131654 | 75 | 321 | 2.0 | 5.0 | 0.00 | 0.00 | 0.00 | 93 | 1009.1 |
| 20260506131154 | 75 | 143 | 2.0 | 5.0 | 0.00 | 0.00 | 0.00 | 94 | 1009.1 |
| 20260506130430 | 75 | 22 | 1.0 | 2.0 | 0.00 | 0.00 | 0.00 | 94 | 1009.1 |
| 20260506125929 | 74 | 296 | 1.0 | 4.0 | 0.00 | 0.00 | 0.00 | 95 | 1009.1 |
| 20260506125430 | 74 | 137 | 2.0 | 4.0 | 0.00 | 0.00 | 0.00 | 95 | 1009.0 |
| 20260506124930 | 74 | 306 | 2.0 | 4.0 | 0.00 | 0.00 | 0.00 | 95 | 1009.0 |
| 20260506124430 | 74 | 340 | 2.0 | 4.0 | 0.00 | 0.00 | 0.00 | 95 | 1008.9 |
| 20260506124155 | 74 | 86 | 2.0 | 4.0 | 0.00 | 0.00 | 0.00 | 95 | 1008.9 |
| 20260506123655 | 74 | 156 | 2.0 | 4.0 | 0.00 | 0.00 | 0.00 | 95 | 1008.8 |
| 20260506122930 | 74 | 156 | 1.0 | 3.0 | 0.00 | 0.00 | 0.00 | 95 | 1008.9 |
| 20260506122433 | 74 | 0 | 1.0 | 3.0 | 0.00 | 0.00 | 0.00 | 95 | 1008.8 |
| 20260506121930 | 74 | 133 | 1.0 | 3.0 | 0.00 | 0.00 | 0.00 | 95 | 1008.8 |
| 20260506121430 | 74 | 114 | 1.0 | 3.0 | 0.00 | 0.00 | 0.00 | 94 | 1008.8 |
| 20260506120930 | 74 | 125 | 1.0 | 3.0 | 0.00 | 0.00 | 0.00 | 94 | 1008.8 |
| 20260506120429 | 74 | 129 | 1.0 | 2.0 | 0.00 | 0.00 | 0.00 | 94 | 1008.8 |
| 20260506115930 | 74 | 114 | 1.0 | 2.0 | 0.00 | 0.00 | 0.00 | 94 | 1008.7 |
| 20260506115925 | 74 | 231 | 1.0 | 2.0 | 0.00 | 0.00 | 0.00 | 94 | 1008.6 |
| 20260506114930 | 74 | 0 | 1.0 | 2.0 | 0.00 | 0.00 | 0.00 | 94 | 1008.7 |
| 20260506114430 | 74 | 316 | 1.0 | 2.0 | 0.00 | 0.00 | 0.00 | 94 | 1008.7 |
| 20260506113930 | 74 | 140 | 1.0 | 3.0 | 0.00 | 0.00 | 0.00 | 94 | 1008.7 |
| 20260506113430 | 74 | 197 | 1.0 | 3.0 | 0.00 | 0.00 | 0.00 | 94 | 1008.8 |
| 20260506112930 | 74 | 0 | 1.0 | 2.0 | 0.00 | 0.00 | 0.00 | 94 | 1008.8 |
| 20260506112431 | 74 | 251 | 0.0 | 2.0 | 0.00 | 0.00 | 0.00 | 94 | 1008.8 |
| 20260506111930 | 74 | 127 | 0.0 | 2.0 | 0.00 | 0.00 | 0.00 | 94 | 1008.8 |
| 20260506111430 | 74 | 0 | 1.0 | 2.0 | 0.00 | 0.00 | 0.00 | 93 | 1008.8 |
| 20260506110929 | 74 | 282 | 1.0 | 2.0 | 0.00 | 0.00 | 0.00 | 93 | 1008.7 |
| 20260506110430 | 75 | 195 | 1.0 | 2.0 | 0.00 | 0.00 | 0.00 | 93 | 1008.7 |
| 20260506105930 | 75 | 273 | 1.0 | 2.0 | 0.00 | 0.00 | 0.00 | 93 | 1008.7 |
| 20260506105430 | 75 | 0 | 1.0 | 2.0 | 0.00 | 0.00 | 0.00 | 93 | 1008.6 |
| 20260506104930 | 75 | 311 | 1.0 | 5.0 | 0.00 | 0.00 | 0.00 | 93 | 1008.6 |
| 20260506104429 | 75 | 275 | 2.0 | 5.0 | 0.00 | 0.00 | 0.00 | 93 | 1008.6 |
| 20260506103930 | 75 | 171 | 1.0 | 3.0 | 0.00 | 0.00 | 0.00 | 93 | 1008.5 |
| 20260506103429 | 75 | 154 | 1.0 | 3.0 | 0.00 | 0.00 | 0.00 | 93 | 1008.4 |
| 20260506102929 | 75 | 192 | 1.0 | 3.0 | 0.00 | 0.00 | 0.00 | 93 | 1008.4 |
| 20260506102430 | 75 | 224 | 2.0 | 4.0 | 0.00 | 0.00 | 0.00 | 92 | 1008.3 |
| 20260506101930 | 75 | 174 | 2.0 | 4.0 | 0.00 | 0.00 | 0.00 | 92 | 1008.3 |
| 20260506101430 | 75 | 272 | 1.0 | 3.0 | 0.00 | 0.00 | 0.00 | 92 | 1008.3 |
| 20260506100930 | 75 | 30 | 1.0 | 3.0 | 0.00 | 0.00 | 0.00 | 92 | 1008.3 |
| 20260506100430 | 75 | 282 | 1.0 | 3.0 | 0.00 | 0.00 | 0.00 | 92 | 1008.3 |
| 20260506100159 | 75 | 58 | 2.0 | 4.0 | 0.00 | 0.00 | 0.00 | 92 | 1008.4 |
| 20260506095658 | 75 | 246 | 2.0 | 4.0 | 0.00 | 0.00 | 0.00 | 92 | 1008.2 |